Location: Ash Shall?l al Awwal
(24.0167°N, 32.8667°E)
Time: 04:23:06
(UTC+00:00)

SL-16 R/B - Pass Details

Date: 02 March 2021
Orbit: 842 x 846 km, 71.0° (Epoch: 12 April)

Event Time Altitude Azimuth Distance (km) Brightness Sun altitude
Rises 16:12:49 0° 209° (SSW) 3,384 5.9 -5.6°
Reaches altitude 10° 16:15:19 10° 214° (SW) 2,452 5.2 -6.2°
Maximum altitude 16:20:47 52° 290° (WNW) 1,043 3.2 -7.4°
Drops below altitude 10° 16:26:16 10° 6° (N) 2,463 4.5 -8.7°
Sets 16:28:48 0° 11° (NNE) 3,400 5.2 -9.2°
